Regional Weather Roundup
Issued by NWS Midland/Odessa, TX

Home | Current Version | Previous Version | Text Only | Print | Product List | Glossary On
Versions: 1 2 3 4 5 6 7 8 9 10 11 12 13 14 15 16 17 18 19 20 21 22 23 24 25 26 27 28 29 30 31 32 33 34 35 36 37 38 39 40 41 42 43 44 45 46 47 48 49 50
000
ASUS44 KMAF 021510
RWRMAF
MIDLAND AREA WEATHER ROUNDUP
NATIONAL WEATHER SERVICE MIDLAND TX
1000 AM CDT WED SEP 02 2015

...IN SOUTHWEST TEXAS AND SOUTHEAST NEW MEXICO...

CITY           SKY/WX    TMP DP  RH WIND       PRES   REMARKS
ALPINE         SUNNY     77  55  45 S3        30.22S
ANDREWS        FAIR      77  61  58 S12       30.13S
ARTESIA        SUNNY     75  54  46 SE12      30.11F
BIG SPRING     SUNNY     75  63  66 S13       30.13R
CARLSBAD       SUNNY     78  54  43 S7        30.09F
DRYDEN           N/A     76  68  76 VRB6      30.08S
FORT STOCKTON  SUNNY     77  62  59 SE12      30.09S
GUAD PASS      SUNNY     78  51  38 E10       30.24S
HOBBS          SUNNY     73  59  60 S14       30.15S
MARFA          SUNNY     72  55  56 S5        30.21R
MIDLAND AIRPK  SUNNY     80  64  57 S9        30.12S
MIDLAND INTL   SUNNY     78  64  61 S13       30.11S
ODESSA         SUNNY     78  63  59 S10       30.12S
PECOS          SUNNY     78  60  54 E13       30.07S
PRESIDIO       NOT AVBL
SEMINOLE       SUNNY     76  60  57 S8        30.15S
SNYDER         SUNNY     76  65  69 SW10      30.11S
WINK           SUNNY     78  64  61 SE10      30.08S
$$
...OTHER STATIONS IN TEXAS...

CITY           SKY/WX    TMP DP  RH WIND       PRES   REMARKS
ABILENE          N/A     79  66  64 S13       30.09S
AMARILLO       CLOUDY    78  54  43 SW10      30.10S
AUSTIN         CLOUDY    75  71  87 CALM      30.07S
BROWNSVILLE    MOSUNNY   84  77  79 S6        29.98F
CORPUS CHRISTI MOSUNNY   84  75  74 NE6       30.01R
DALLAS FTW     MOSUNNY   81  67  62 S8        30.08R
DEL RIO        CLOUDY    80  70  71 SE9       30.04R
EL PASO        MOSUNNY   80  49  33 E5        30.10S
HOUSTON INT    MOSUNNY   79  71  76 S3        30.05S
LUBBOCK        MOSUNNY   76  56  49 SW9       30.12S
SAN ANGELO     PTSUNNY   76  67  73 S9        30.10R
SAN ANTONIO    PTSUNNY   79  69  71 CALM      30.07S
WACO           MOSUNNY   79  69  71 S7        30.08R
WICHITA FALLS  NOT AVBL
$$
...OTHER LOCATIONS IN NEW MEXICO...

CITY           SKY/WX    TMP DP  RH WIND       PRES   REMARKS
ALAMAGORDO     MOSUNNY   82  45  26 N5        30.14S
ALBUQUERQUE    PTSUNNY   72  49  44 E5        30.24R
CANNON AFB     MOSUNNY   78  52  40 SW15      30.15R
CLOVIS         SUNNY     77  52  41 SW14G20   30.16R
HOLLOMAN AFB   MOSUNNY   81  46  29 VRB7      30.12S
ROSWELL        MOSUNNY   78  52  40 S7        30.11S
RUIDOSO        MOSUNNY   72  45  37 MISG      30.34F
SANTA FE       MOSUNNY   69  44  40 N6        30.29R
TRUTH OR CONSE PTSUNNY   77  48  35 NW3       30.18S
TUCUMCARI      MOSUNNY   82  51  34 W16       30.10S
$$




USA.gov is the U.S. government's official web portal to all federal, state and local government web resources and services.